Weather in Zarech'ye

Russia / Smolensk Oblast     54°54′46″N   34°33′18″E
temp.,
°C
wind,
m/s
gust,
m/s
humid.,
%
clouds,
%
prec.,
mm/h
press.,
hPa
HPBL,
m
13 june, sun
sun1300:00+12ssw22931 0.0 100723
03:00+11ssw22955 0.0 100734
06:00+13ssw24935 0.0 1006107
09:00+18s34740 0.0 1006570
12:00+22sse45588 0.1 10051629
15:00+22s466654 0.2 10051169
18:00+20ssw4783100 1.6 1005659
21:00+16s229240 3.7 100627
14 june, mon
mon1400:00+14s239622 0.5 100854
03:00+13ssw249819 0.5 101083
06:00+13sw369774 0.0 1011225
09:00+16sw34829 0.0 1013502
12:00+20wsw23645 0.0 1015950
15:00+22sw23555 0.0 10151267
18:00+22w23665 0.0 1014880
21:00+16nw34855 0.0 101655
15 june, tue
tue1500:00+13nw22895 0.0 101615
03:00+12w22910 0.0 101612
06:00+14wnw24910 0.0 1016121
09:00+19w23730 0.0 1015597
12:00+22w34608 0.0 10141409
15:00+23wnw345523 0.0 10131694
18:00+20nnw457184 0.0 1013514
21:00+16w22791 0.0 101227
16 june, wed
wed1600:00+13nw3783100 0.0 1013104
03:00+12nw3387100 0.0 101343
06:00+14nnw38915 0.0 1013225
09:00+19n457824 0.0 1014677
12:00+20n566995 0.3 10151293
15:00+21n5660100 0.3 10151661
18:00+19n5963100 0.0 1016619
21:00+15n41175100 0.0 1019219
17 june, thu
thu1700:00+12n411755 0.0 1021241
03:00+10n378114 0.0 1023107
06:00+11n37811 0.0 1024154
09:00+16nne35625 0.0 1024505
12:00+19nne45535 0.0 10251248
15:00+20nne45505 0.0 10251380
18:00+20ne35619 0.0 1025691
21:00+15ne22730 0.0 102619